User: anonymous   Login
Location: Norton
(51.3000°N, 0.8167°E)
Time: 19:50:49
(UTC+00:00)
Language:

Cosmos 1821 Rocket - Orbit

View from above orbital plane
View from above orbital plane
View from above satellite
View from above satellite

Ground track
Ground track

The orbit data is extracted from the following two-line orbital elements,

1 17526U 87017B   21136.82795806  .00000045  00000-0  30079-4 0  9994
2 17526  82.9044  51.7613 0039027 280.7317  78.9448 13.76893470702829
Epoch (UTC): 16 May 2021 19:52:15
Eccentricity: 0.0039027
inclination: 82.9044°
perigee height: 946 km
apogee height: 1003 km
right ascension of ascending node: 51.7613°
argument of perigee: 280.7317°
revolutions per day: 13.76893470
mean anomaly at epoch: 78.9448°
orbit number at epoch: 70282

The dashed part of the orbit path shows where the satellite is in the earth's shadow,  

DLR